Flag for United Kingdom Weather past 2 weeks in Sutton Coldfield, England, United Kingdom

Now
64 °F

Partly sunny.


Feels Like: 64 °F
Forecast: 47 / 61 °F
Wind: 15 mph from Northwest

Location: Birmingham / Airport

Current Time: May 22, 2015 at 7:13:52 PM

Latest Report: May 22, 2015 at 6:50 PM


Visibility: N/A

Pressure: 30.21 "Hg

Humidity: 68%

Dew point: 54 °F

Location of Sutton ColdfieldLocation

Historic Weather in Sutton Coldfield — Graph

°F

Sutton Coldfield temperature yesterday

Maximum temperature yesterday: 66 °F (at 4:50 PM)
Minimum temperature yesterday: 43 °F (at 5:20 AM)
Average temperature yesterday: 56 °F

Past Weeks' High & Low Weather Summary

 TemperatureHumidityPressure
High66 °F (May 11, 2:20 PM)100% (May 18, 8:20 AM)30.33 "Hg (May 18, 8:20 AM)
Low41 °F (May 13, 5:20 AM)29% (May 12, 3:50 PM)29.50 "Hg (May 19, 2:50 AM)
Average52 °F69%30.02 "Hg
* Reported May 7 6:20 PM — May 22 6:20 PM, Sutton Coldfield, Weather by CustomWeather, © 2015

Note: Actual official high and low records may vary slightly from our data, if they occured in-between our weather recording intervals... More about our weather records

Advertising

Sutton Coldfield weather history for previous 24 hours

 ConditionsComfort  
Time TempWeatherWind HumidityBarometerVisibility
6:20 PM
Fri, May 22
64 °FScattered clouds.13 mph68%30.21 "HgN/A
5:20 PM64 °FScattered showers. Broken clouds.12 mph68%30.21 "HgN/A
4:50 PM66 °FBroken clouds.9 mph60%30.21 "HgN/A
4:20 PM66 °FPartly sunny.9 mph56%30.21 "HgN/A
3:50 PM66 °FScattered clouds.7 mph60%30.21 "HgN/A
3:20 PM66 °FBroken clouds.8 mph56%30.21 "HgN/A
2:50 PM66 °FScattered clouds.8 mph60%30.21 "HgN/A
2:20 PM66 °FPartly sunny.8 mph60%30.21 "HgN/A
1:50 PM64 °FBroken clouds.6 mph68%30.24 "HgN/A
1:20 PM64 °FBroken clouds.6 mph64%30.24 "HgN/A
12:50 PM63 °FPartly sunny.6 mph64%30.24 "HgN/A
12:20 PM63 °FBroken clouds.5 mph64%30.24 "HgN/A
11:50 AM63 °FBroken clouds.6 mph64%30.24 "HgN/A
11:20 AM61 °FPartly sunny.6 mph68%30.24 "HgN/A
10:50 AM59 °FPartly sunny.6 mph72%30.27 "HgN/A
10:20 AM59 °FPartly sunny.3 mph72%30.27 "HgN/A
9:50 AM59 °FBroken clouds.5 mph72%30.27 "HgN/A
9:20 AM57 °FBroken clouds.6 mph77%30.27 "HgN/A
8:50 AM55 °FPartly sunny.7 mph77%30.27 "HgN/A
8:20 AM54 °FBroken clouds.7 mph82%30.27 "HgN/A
7:50 AM54 °FPartly sunny.6 mph77%30.27 "HgN/A
7:20 AM52 °FPartly sunny.5 mph82%30.27 "HgN/A
6:50 AM52 °FPartly sunny.5 mph82%30.27 "HgN/A
6:20 AM52 °FMostly cloudy.5 mph77%30.27 "HgN/A
5:50 AM52 °FPassing clouds.5 mph77%30.27 "HgN/A
5:20 AM52 °FPassing clouds.6 mph77%30.27 "HgN/A
4:50 AM52 °FPassing clouds.5 mph77%30.27 "HgN/A
4:20 AM52 °FPassing clouds.5 mph77%30.27 "HgN/A
3:50 AM52 °FClear.3 mph77%30.27 "Hg10 mi
3:20 AM52 °FPassing clouds.5 mph77%30.27 "HgN/A
2:50 AM52 °FCool.5 mph77%30.27 "HgN/A
2:20 AM52 °FCool.6 mph77%30.30 "HgN/A
1:50 AM54 °FCool.5 mph67%30.30 "HgN/A
1:20 AM54 °FPassing clouds.6 mph63%30.30 "HgN/A
12:50 AM54 °FClear.2 mph63%30.30 "Hg10 mi
12:20 AM55 °FPassing clouds.5 mph59%30.30 "HgN/A
11:50 PM
Thu, May 21
55 °FClear.6 mph59%30.30 "Hg10 mi
11:20 PM55 °FClear.7 mph59%30.30 "Hg10 mi
10:20 PM55 °FClear.9 mph59%30.30 "Hg10 mi
9:50 PM57 °FSunny.7 mph55%30.30 "Hg10 mi
9:20 PM57 °FSunny.6 mph55%30.30 "Hg10 mi
8:50 PM59 °FSunny.7 mph51%30.30 "Hg10 mi
8:20 PM59 °FSunny.10 mph51%30.27 "Hg10 mi
7:50 PM61 °FSunny.10 mph45%30.27 "Hg10 mi
7:20 PM63 °FSunny.10 mph45%30.27 "Hg10 mi
Weather by CustomWeather, © 2015

See weather overviewHow to use our weather pages